Simultaneous Nadir Overpasses (SNOs) Predictions

Prediction of SNOs between GOES-16 and TERRA Satellite Orbit:

Table of predicted SNOs for the next 14.0 days since TLE Epoch: 8/26/2022
Index Date Time (GOES-16) GOES-16 Lat,Lon TERRA Lat,Lon Distance(km) Time Diff (sec)
1 08/27/2022 15:16:26 -0.04, -75.21 -0.01, -75.38 18.71 80
2 08/29/2022 15:06:51 -0.03, -75.23 -0.62, -72.42 318.58 80
3 08/30/2022 03:28:15 0.03, -75.22 -0.45, -77.62 273.05 80
4 09/01/2022 03:13:20 0.03, -75.23 0.17, -74.67 64.76 80
5 09/03/2022 03:01:05 0.03, -75.25 0.79, -71.71 402.63 80
6 09/03/2022 15:22:20 -0.03, -75.27 0.28, -76.88 182.09 80
7 09/05/2022 15:10:04 -0.02, -75.29 -0.28, -73.91 156.03 80
8 09/06/2022 03:34:08 0.01, -75.28 -0.78, -79.11 435.30 80
9 09/07/2022 14:57:49 -0.01, -75.31 -0.91, -70.95 494.63 80
10 09/08/2022 03:21:52 0.01, -75.30 -0.20, -76.14 96.53 80
